Location: Frydek-Mistek
(49.6830°N, 18.3330°E)
Time: 18:57:15
(UTC+02:00)

ISS - Visible Passes

Search period start: 19 April 2024 00:00
Search period end: 29 April 2024 00:00
Orbit: 412 x 418 km, 51.6° (Epoch: 19 April)

Date Brightness Start Highest point End Pass type
(mag) Time Alt. Az. Time Alt. Az. Time Alt. Az.
21 Apr -1.0 04:47:55 10° SSE 04:49:01 11° SE 04:50:05 10° ESE visible
23 Apr -2.0 04:44:46 10° SSW 04:47:30 24° SE 04:50:15 10° E visible
24 Apr -1.5 03:57:13 13° S 03:58:42 16° SE 04:00:49 10° E visible
25 Apr -1.0 03:10:02 10° SE 03:10:02 10° SE 03:10:15 10° SE visible
25 Apr -3.2 04:42:53 11° SW 04:45:57 47° SSE 04:49:10 10° ENE visible
26 Apr -2.6 03:55:37 23° S 03:56:58 32° SSE 03:59:59 10° E visible
27 Apr -2.0 03:08:14 21° SE 03:08:14 21° SE 03:10:37 10° E visible
27 Apr -3.8 04:41:05 10° WSW 04:44:20 85° SSE 04:47:41 10° ENE visible
28 Apr -0.9 02:20:47 10° ESE 02:20:47 10° ESE 02:20:53 10° ESE visible
28 Apr -3.7 03:53:37 28° SW 03:55:11 62° SSE 03:58:29 10° ENE visible
